Location: Unspecified
(0.0000°N, 0.0000°E)
Time: 21:50:16
(UTC+00:00)

ISS - Visible Passes

Search period start: 18 October 2017 00:00
Search period end: 28 October 2017 00:00
Orbit: 401 x 408 km, 51.6° (Epoch: 19 October)

Date Brightness Start Highest point End Pass type
(mag) Time Alt. Az. Time Alt. Az. Time Alt. Az.
19 Oct -1.6 19:27:18 10° NW 19:28:44 23° WNW 19:28:44 23° WNW visible
20 Oct -3.7 18:35:01 10° NNW 18:38:13 53° NE 18:40:50 14° SE visible
21 Oct -0.6 19:20:42 10° W 19:22:14 13° SW 19:23:47 10° SSW visible
22 Oct -0.4 05:18:33 10° SSE 05:19:52 12° SE 05:21:11 10° ESE visible
22 Oct -1.9 18:26:58 10° WNW 18:29:57 32° SW 18:32:55 10° S visible
24 Oct -2.5 05:08:27 10° SSW 05:11:35 44° SE 05:14:42 10° NE visible
25 Oct -0.8 04:17:07 10° SSE 04:19:16 16° SE 04:21:25 10° E visible
26 Oct -3.3 05:00:10 10° SW 05:03:12 37° NW 05:06:15 10° NNE visible
27 Oct -2.8 04:11:45 43° ENE 04:11:45 43° ENE 04:14:06 10° NE visible
